Charlevoix, MI

7:53 AM EDT on April 24, 2018 (GMT -0400)
Charlevoix Municipal

Weather History for KCVX - November, 2013

Change the Weather History Date:

Sunday, November 17, 2013

  Actual Average Record
Temperature  
Mean Temperature 52 °F -  
Max Temperature 59 °F 37 °F 66 °F (2016)
Min Temperature 44 °F 33 °F 19 °F (2014)
Degree Days  
Heating Degree Days 13    
Growing Degree Days 2 (Base 50)    
Moisture  
Dew Point 53 °F    
Average Humidity 98    
Maximum Humidity 100    
Minimum Humidity 89    
Precipitation  
Precipitation 0.00 in - - ()
Sea Level Pressure  
Sea Level Pressure 29.32 in    
Wind  
Wind Speed 13 mph (South)    
Max Wind Speed 40 mph    
Max Gust Speed 46 mph    
Visibility 7 miles    
Events Rain    
Averages and records for this station are not official NWS values.
T = Trace of Precipitation, MM = Missing Value Source: NWS Daily Summary

Daily Weather History Graph

Daily Weather History Graph

Search for Another Location

Airport or City:

Astronomy

Nov. 17, 2013 Rise Set
Actual Time 7:42 AM EST 5:09 PM EST
Civil Twilight 7:10 AM EST 5:41 PM EST
Nautical Twilight 6:34 AM EST 6:17 PM EST
Astronomical Twilight 5:59 AM EST 6:52 PM EST
Moon 5:25 PM EST (11/17) 7:35 AM EST (11/17)
Length of Visible Light 10h 30m
Length of Day
9h 26m
Full, 100% of the Moon is Illuminated
Nov 17
Full
Nov 25
Last Quarter
Dec 2
New
Dec 9
First Quarter
Dec 17
Full

Hourly Weather History & Observations

Time (EST) Temp. Windchill Dew Point Humidity Pressure Visibility Wind Dir Wind Speed Gust Speed Precip Events Conditions
12:15 AM 53.8 °F - 52.7 °F 96% 29.55 in 10.0 mi South 18.4 mph 25.3 mph N/A Rain Light Rain
12:35 AM 53.8 °F - 52.7 °F 96% 29.55 in 10.0 mi South 17.3 mph 26.5 mph N/A   Overcast
12:54 AM 54.0 °F - 52.7 °F 95% 29.55 in 10.0 mi South 13.8 mph 21.9 mph N/A   Overcast
1:15 AM 54.5 °F - 53.1 °F 95% 29.54 in 10.0 mi South 15.0 mph 24.2 mph N/A   Light Drizzle
1:35 AM 54.5 °F - 53.1 °F 95% 29.54 in 10.0 mi South 13.8 mph 29.9 mph N/A   Overcast
1:54 AM 54.5 °F - 53.1 °F 95% 29.54 in 10.0 mi South 10.4 mph 19.6 mph N/A   Overcast
2:15 AM 54.5 °F - 53.2 °F 96% 29.54 in 10.0 mi South 13.8 mph 19.6 mph N/A   Overcast
2:34 AM 54.5 °F - 53.6 °F 97% 29.53 in 10.0 mi South 10.4 mph 18.4 mph N/A   Overcast
2:54 AM 54.5 °F - 53.8 °F 97% 29.53 in 10.0 mi South 10.4 mph 16.1 mph N/A   Overcast
3:15 AM 54.7 °F - 54.0 °F 97% 29.53 in 10.0 mi South 12.7 mph 19.6 mph N/A   Overcast
3:34 AM 55.0 °F - 54.5 °F 98% 29.52 in 10.0 mi South 9.2 mph 16.1 mph N/A   Overcast
3:54 AM 55.4 °F - 54.5 °F 97% 29.52 in 10.0 mi South 9.2 mph - N/A   Overcast
4:15 AM 55.6 °F - 54.9 °F 97% 29.52 in 10.0 mi South 8.1 mph - N/A   Overcast
4:34 AM 55.8 °F - 55.2 °F 98% 29.51 in 10.0 mi SSE 8.1 mph - N/A   Overcast
4:54 AM 55.9 °F - 55.4 °F 98% 29.52 in 10.0 mi South 8.1 mph - N/A   Overcast
5:15 AM 56.3 °F - 55.6 °F 97% 29.51 in 7.0 mi South 6.9 mph - N/A   Overcast
5:34 AM 56.3 °F - 55.6 °F 97% 29.52 in 10.0 mi SSE 8.1 mph - N/A   Overcast
5:55 AM 56.5 °F - 55.8 °F 97% 29.51 in 10.0 mi SSE 8.1 mph - N/A   Overcast
6:14 AM 56.5 °F - 55.8 °F 97% 29.50 in 10.0 mi SSE 8.1 mph - N/A   Overcast
6:34 AM 56.5 °F - 55.8 °F 97% 29.49 in 7.0 mi SSE 9.2 mph - N/A   Mostly Cloudy
6:55 AM 56.3 °F - 55.8 °F 98% 29.50 in 7.0 mi South 8.1 mph - N/A   Mostly Cloudy
7:14 AM 56.5 °F - 55.9 °F 98% 29.50 in 7.0 mi SSE 9.2 mph - N/A   Mostly Cloudy
7:35 AM 56.7 °F - 56.1 °F 98% 29.49 in 7.0 mi SSE 8.1 mph - N/A   Overcast
7:55 AM 57.0 °F - 56.3 °F 97% 29.48 in 7.0 mi SE 6.9 mph - N/A   Overcast
8:14 AM 56.7 °F - 56.3 °F 99% 29.48 in 7.0 mi SSE 5.8 mph - N/A   Overcast
8:35 AM 57.2 °F - 56.3 °F 97% 29.48 in 7.0 mi SE 5.8 mph - N/A   Overcast
8:55 AM 57.2 °F - 56.5 °F 97% 29.47 in 7.0 mi SSE 6.9 mph - N/A   Overcast
9:14 AM 57.4 °F - 56.7 °F 97% 29.46 in 3.0 mi SE 6.9 mph - N/A   Overcast
9:35 AM 57.4 °F - 57.2 °F 99% 29.44 in 7.0 mi SE 9.2 mph 16.1 mph N/A   Overcast
9:54 AM 58.1 °F - 57.7 °F 99% 29.44 in 7.0 mi SSE 10.4 mph 17.3 mph N/A   Overcast
10:14 AM 58.6 °F - 58.1 °F 98% 29.43 in 7.0 mi SSE 8.1 mph - N/A   Overcast
10:35 AM 59.0 °F - 57.7 °F 96% 29.42 in 10.0 mi SSE 6.9 mph - N/A   Overcast
10:54 AM 58.5 °F - 57.6 °F 97% 29.41 in 7.0 mi SE 3.5 mph - N/A Rain Rain
11:14 AM 57.6 °F - 57.2 °F 99% 29.38 in 2.0 mi East 8.1 mph - N/A Rain Heavy Rain
11:35 AM 55.6 °F - 55.6 °F 100% 29.35 in 2.0 mi ESE 9.2 mph - N/A Rain Light Rain
11:54 AM 57.2 °F - 57.2 °F 100% 29.31 in 4.0 mi SE 12.7 mph 17.3 mph N/A Rain Rain
12:14 PM 58.1 °F - 58.1 °F 100% 29.27 in 10.0 mi SE 13.8 mph 19.6 mph N/A   Overcast
12:35 PM 58.6 °F - 58.5 °F 99% 29.24 in 5.0 mi SE 15.0 mph 28.8 mph N/A Rain Light Rain
12:54 PM 58.8 °F - 58.3 °F 98% 29.21 in 10.0 mi SE 18.4 mph 27.6 mph N/A   Overcast
1:15 PM 59.2 °F - 58.6 °F 98% 29.22 in 3.0 mi SW 15.0 mph 24.2 mph N/A Rain Heavy Rain
1:35 PM 56.3 °F - 55.9 °F 99% 29.20 in 5.0 mi West 13.8 mph 20.7 mph N/A Rain Rain
1:54 PM 54.7 °F - 54.7 °F 100% 29.19 in 1.0 mi NW 5.8 mph - N/A Rain Heavy Rain
2:15 PM 54.5 °F - 54.5 °F 100% 29.20 in 1.8 mi NW 6.9 mph - N/A Rain Heavy Rain
2:34 PM 54.0 °F - 54.0 °F 100% 29.19 in 1.8 mi WNW 8.1 mph - N/A Rain Heavy Rain
2:55 PM 54.0 °F - 54.0 °F 100% 29.17 in 5.0 mi NW 4.6 mph 9.2 mph N/A Rain Rain
3:15 PM 54.0 °F - 54.0 °F 100% 29.16 in 4.0 mi SE 3.5 mph - N/A Rain Rain
3:34 PM 53.6 °F - 53.6 °F 100% 29.15 in 3.0 mi ESE 6.9 mph - N/A Rain Rain
3:55 PM 53.8 °F - 53.8 °F 100% 29.14 in 5.0 mi ESE 6.9 mph - N/A Rain Rain
4:15 PM 53.6 °F - 53.6 °F 100% 29.14 in 4.0 mi ESE 3.5 mph - N/A Rain Heavy Rain
4:34 PM 53.6 °F - 53.6 °F 100% 29.13 in 5.0 mi SE 5.8 mph - N/A Rain Rain
4:55 PM 53.8 °F - 53.8 °F 100% 29.09 in 3.0 mi SE 4.6 mph - N/A Rain Heavy Rain
5:14 PM 53.8 °F - 53.8 °F 100% 29.08 in 10.0 mi SE 6.9 mph - N/A Rain Light Rain
5:34 PM 53.6 °F - 53.6 °F 100% 29.07 in 10.0 mi SE 8.1 mph - N/A Rain Light Rain
5:54 PM 53.6 °F - 53.6 °F 100% 29.07 in 7.0 mi SSE 6.9 mph - N/A Rain Rain
6:14 PM 53.6 °F - 53.6 °F 100% 29.06 in 10.0 mi South 10.4 mph - N/A Rain Light Rain
6:35 PM 52.5 °F - 52.5 °F 100% 29.07 in 7.0 mi West 17.3 mph 24.2 mph N/A Rain Light Rain
6:54 PM 50.0 °F - 50.0 °F 100% 29.06 in 7.0 mi WNW 10.4 mph 18.4 mph N/A Rain Rain
7:14 PM 49.6 °F - 49.6 °F 100% 29.05 in 5.0 mi WNW 11.5 mph - N/A Rain Rain
7:35 PM 49.6 °F - 49.6 °F 100% 29.04 in 7.0 mi WNW 13.8 mph 20.7 mph N/A Rain Light Rain
7:54 PM 49.5 °F - 49.5 °F 100% 29.03 in 10.0 mi NW 13.8 mph 24.2 mph N/A   Overcast
8:14 PM 49.6 °F - 49.6 °F 100% 29.06 in 5.0 mi WNW 13.8 mph - N/A   Drizzle
8:35 PM 49.5 °F - 49.5 °F 100% 29.07 in 4.0 mi WNW 21.9 mph 27.6 mph N/A Rain Light Rain
8:54 PM 47.5 °F - 47.5 °F 100% 29.09 in 5.0 mi WNW 23.0 mph 33.4 mph N/A Rain Light Rain
9:14 PM 46.8 °F - 46.8 °F 100% 29.11 in 7.0 mi WNW 19.6 mph 38.0 mph N/A Rain Rain
9:35 PM 46.4 °F 38.7 °F 46.0 °F 99% 29.14 in 7.0 mi WNW 20.7 mph 39.1 mph N/A   Drizzle
9:54 PM 46.4 °F 38.3 °F 46.0 °F 99% 29.15 in 7.0 mi WNW 23.0 mph 33.4 mph N/A   Light Drizzle
10:15 PM 46.8 °F - 46.2 °F 98% 29.17 in 7.0 mi West 26.5 mph 35.7 mph N/A   Overcast
10:35 PM 46.4 °F 36.7 °F 45.5 °F 97% 29.18 in 10.0 mi West 33.4 mph 39.1 mph N/A Rain Rain
10:54 PM 45.9 °F 36.8 °F 44.1 °F 93% 29.20 in 10.0 mi West 27.6 mph 41.4 mph N/A Rain Light Rain
11:15 PM 45.5 °F 35.6 °F 43.7 °F 93% 29.22 in 10.0 mi West 32.2 mph 39.1 mph N/A   Light Drizzle
11:35 PM 45.1 °F 35.6 °F 42.6 °F 91% 29.24 in 10.0 mi West 28.8 mph 42.6 mph N/A   Overcast
11:54 PM 44.8 °F 33.6 °F 41.7 °F 89% 29.27 in 10.0 mi West 40.3 mph 46.0 mph N/A   Overcast